Vorticity
7 5 5 6 3 3 4 5 3 3 4 4 4 4 6 5 4 5 5 4 4 4 1 1 2 3 3 -1 8 12 2 3 1 3 8 10 10 11 9 8 6 7 3 3 4 4 4
6 3 4 5 3 1 1 1 2 3 4 3 5 7 6 4 1 1 0 4 4 2 3 3 6 6 9 -15 -0 -1 0 -0 2 -0 -4 5 13 9 6 9 11 9 4 5 5 2 5
5 6 7 5 5 3 2 4 4 4 3 4 4 3 1 2 1 2 4 6 8 10 9 7 7 10 8 -4 9 3 -1 0 4 5 5 6 10 -4 39 17 16 8 9 12 10 3 6
2 2 3 6 6 5 5 3 2 4 3 1 4 7 5 4 2 2 4 6 5 6 7 5 5 5 4 6 1 -1 5 5 1 2 3 8 5 1 -6 23 -6 8 -2 -4 11 9 13
3 4 5 5 4 5 5 2 3 4 4 3 8 6 6 6 4 7 11 8 6 5 4 5 4 5 5 5 3 -0 2 2 5 6 6 3 4 10 10 -5 14 -5 -35 5 22 24 14
2 3 3 2 2 5 4 3 2 5 3 10 11 8 6 7 8 9 9 9 9 2 3 3 3 3 -1 4 4 4 0 2 4 11 23 31 40 25 27 -0 -42 12 29 29 33 24 11
5 5 4 6 5 7 8 2 0 7 9 10 8 8 7 7 12 7 7 5 6 7 2 1 -0 -0 2 0 3 13 27 31 29 22 22 30 26 -8 18 30 31 26 12 9 9 10 11
5 5 4 2 7 9 7 -1 7 10 8 9 7 8 9 7 8 5 4 6 7 7 6 2 9 4 -3 7 24 28 22 24 18 17 32 23 0 18 34 17 12 8 15 8 9 8 4
1 1 0 -0 1 8 3 4 9 10 7 5 6 7 6 6 5 4 4 4 5 6 2 4 1 7 43 20 31 20 26 26 22 36 33 23 8 28 16 19 16 8 -2 25 16 8 27
3 5 6 2 3 6 4 6 13 8 6 5 8 7 6 6 5 2 4 4 3 1 6 21 31 35 22 33 26 22 24 28 30 7 21 25 47 17 4 10 13 56 16 -11 16 12 12
6 6 3 6 6 5 4 8 12 4 5 7 4 9 8 6 5 5 3 3 -0 13 4 5 16 10 29 31 20 29 32 39 22 26 8 5 10 36 33 37 18 7 -12 23 -19 30 16
7 6 6 6 3 5 8 9 9 7 6 7 9 8 4 4 3 2 1 8 12 14 64 9 29 27 25 43 41 32 42 36 40 55 40 39 -27 29 9 35 31 53 40 24 -20 6 -0
7 7 6 4 3 9 8 8 9 4 6 10 8 4 5 5 3 -3 4 8 19 37 25 16 17 39 43 21 11 21 24 -8 21 20 41 23 23 27 -42 11 30 20 17 43 9 -11 -10
9 7 4 3 8 9 8 10 5 7 10 7 3 5 2 2 -2 2 10 19 17 26 37 37 31 33 18 8 18 4 39 5 4 9 33 24 1 34 32 24 34 5 32 12 21 28 23
5 3 4 7 10 8 9 6 7 10 7 4 3 3 6 -4 3 12 19 21 31 40 38 38 35 8 10 5 10 10 19 -3 8 18 25 52 -7 8 42 5 -7 15 36 14 14 16 -30
9 5 8 10 9 10 7 7 9 6 6 2 5 3 2 3 11 15 22 21 44 30 30 30 12 3 5 6 8 6 14 15 7 11 33 44 21 6 41 4 34 -7 4 14 5 15 52
8 10 10 9 8 7 7 10 6 6 4 3 3 5 2 11 13 16 18 39 42 35 21 11 14 10 10 9 6 9 12 9 9 27 12 32 5 -10 7 38 13 11 -25 37 2 -6 -4
4 7 9 7 0 10 9 8 6 5 5 3 4 4 9 11 17 17 29 32 47 29 17 10 4 10 4 10 9 13 12 11 2 17 29 27 13 12 8 36 57 6 -15 42 3 23 -49
5 8 7 1 11 10 10 7 5 6 3 3 2 1 9 17 10 27 39 39 30 18 24 4 14 9 10 1 3 6 13 5 6 2 33 25 18 19 1 -2 14 43 -5 71 31 8 44
7 7 5 11 12 10 7 4 6 5 2 5 5 8 12 17 21 30 26 27 22 13 10 16 6 3 0 4 4 17 13 8 9 14 15 30 18 5 -2 25 37 9 20 -45 66 24 -24
9 7 9 7 11 7 7 5 6 2 4 1 8 6 9 14 28 36 36 40 8 10 20 6 2 13 8 14 14 17 14 24 20 11 16 24 18 -1 -1 14 13 23 -10 4 -1 14 4
7 7 8 10 11 6 4 7 2 3 3 12 7 13 11 27 32 31 30 22 7 20 14 16 2 3 14 6 7 8 17 17 18 18 16 24 25 3 -3 10 34 13 16 -13 20 1 19
3 12 9 14 6 4 7 4 3 5 7 9 6 12 10 34 29 24 16 26 10 15 23 9 6 10 6 14 26 26 17 15 18 19 11 29 20 20 -6 23 33 28 10 7 16 12 5
11 9 14 6 5 4 8 3 6 5 8 10 8 14 22 33 23 23 21 9 20 18 15 11 5 34 23 10 32 21 14 22 18 24 14 28 28 21 -18 4 9 10 19 31 12 7 -10
7 11 12 6 3 9 4 5 3 4 8 11 10 21 25 33 20 20 32 2 18 19 9 11 33 2 11 8 30 20 16 17 13 14 28 17 30 26 10 9 0 14 5 9 18 24 13
6 17 7 5 7 6 4 2 4 6 9 12 13 29 30 23 13 33 36 37 29 23 17 18 3 5 5 9 23 12 16 19 0 11 21 20 32 11 -7 1 2 4 11 -3 20 31 -8
18 5 6 6 8 4 2 4 7 7 10 9 24 24 40 16 17 20 20 20 27 20 15 9 10 8 7 14 7 9 6 22 5 9 15 24 25 16 18 12 -7 21 2 19 12 20 21
9 7 5 7 5 1 3 3 8 9 9 12 22 26 41 16 26 27 22 -1 2 5 5 8 7 7 9 14 4 4 19 5 8 10 14 27 27 22 14 4 4 9 13 17 -5 -3 9
8 6 7 9 2 0 3 4 9 8 10 16 29 31 35 21 8 -4 4 7 6 4 9 3 2 3 6 5 10 4 6 14 -1 -0 13 12 26 26 12 12 -2 12 5 5 -2 10 8
Height
5815 5813 5811 5809 5807 5805 5803 5799 5796 5793 5790 5786 5782 5778 5775 5770 5765 5761 5756 5750 5745 5741 5736 5731 5726 5723 5721 5719 5718 5707 5705 5703 5700 5701 5702 5699 5697 5694 5694 5698 5696 5696 5702 5704 5706 5707 5711
5813 5811 5809 5807 5804 5801 5798 5795 5793 5789 5785 5780 5777 5773 5767 5762 5758 5754 5747 5742 5737 5733 5726 5719 5714 5710 5707 5707 5698 5694 5690 5688 5685 5682 5681 5681 5682 5680 5678 5679 5678 5683 5683 5689 5692 5697 5697
5811 5809 5807 5804 5801 5797 5794 5792 5788 5784 5779 5773 5770 5765 5760 5754 5748 5744 5737 5731 5726 5721 5713 5707 5701 5695 5693 5692 5680 5677 5671 5668 5665 5663 5663 5660 5657 5654 5660 5660 5663 5663 5663 5668 5680 5684 5683
5808 5806 5803 5800 5797 5794 5791 5787 5782 5777 5771 5766 5761 5757 5750 5743 5737 5732 5727 5721 5713 5708 5701 5694 5687 5679 5677 5670 5664 5659 5652 5649 5645 5643 5642 5641 5637 5633 5632 5635 5637 5637 5640 5650 5676 5663 5670
5804 5802 5799 5796 5792 5789 5784 5780 5775 5770 5764 5758 5752 5747 5739 5732 5726 5721 5715 5710 5701 5695 5686 5678 5671 5663 5657 5649 5642 5635 5629 5624 5619 5618 5618 5615 5610 5608 5611 5611 5613 5612 5619 5630 5647 5641 5641
5801 5798 5795 5791 5787 5782 5778 5774 5768 5762 5755 5749 5742 5735 5726 5718 5712 5706 5701 5695 5689 5681 5672 5660 5652 5645 5635 5620 5614 5604 5597 5591 5588 5585 5585 5583 5577 5574 5580 5581 5573 5594 5600 5610 5614 5626 5617
5797 5793 5789 5785 5781 5776 5771 5766 5760 5753 5745 5739 5731 5723 5715 5705 5698 5691 5686 5680 5674 5664 5653 5637 5627 5616 5603 5590 5581 5572 5561 5560 5550 5548 5553 5551 5542 5540 5557 5561 5567 5575 5578 5584 5598 5611 5597
5792 5787 5783 5779 5774 5769 5763 5757 5750 5742 5734 5726 5719 5710 5701 5693 5684 5676 5666 5657 5648 5639 5635 5615 5605 5589 5573 5561 5556 5542 5530 5523 5520 5515 5518 5516 5507 5529 5537 5536 5542 5549 5554 5561 5579 5579 5576
5785 5781 5777 5771 5766 5760 5754 5747 5739 5731 5722 5714 5706 5697 5688 5681 5669 5660 5648 5637 5625 5613 5603 5590 5576 5561 5545 5526 5516 5506 5498 5487 5483 5485 5486 5481 5494 5502 5501 5510 5517 5524 5534 5547 5557 5565 5566
5778 5774 5768 5763 5758 5751 5744 5737 5729 5721 5711 5703 5694 5684 5675 5668 5657 5644 5630 5616 5602 5586 5575 5551 5539 5526 5518 5495 5486 5473 5464 5456 5462 5459 5459 5458 5473 5469 5475 5483 5497 5500 5525 5536 5544 5549 5549
5771 5766 5760 5755 5749 5742 5735 5726 5719 5710 5701 5691 5682 5672 5661 5647 5640 5626 5612 5597 5580 5559 5543 5529 5505 5501 5488 5473 5454 5451 5444 5436 5437 5442 5442 5447 5451 5453 5457 5466 5482 5485 5511 5519 5523 5529 5536
5763 5758 5753 5747 5740 5732 5725 5717 5708 5700 5689 5679 5670 5659 5648 5636 5621 5607 5591 5574 5558 5542 5521 5502 5491 5474 5464 5453 5444 5436 5431 5427 5421 5420 5425 5428 5439 5444 5453 5459 5463 5480 5489 5499 5508 5514 5516
5757 5751 5744 5738 5731 5723 5715 5707 5698 5689 5679 5668 5657 5646 5633 5621 5607 5589 5570 5549 5534 5514 5495 5482 5468 5457 5448 5439 5433 5428 5426 5418 5413 5410 5410 5415 5428 5435 5443 5444 5452 5461 5473 5482 5490 5496 5498
5749 5743 5737 5730 5722 5714 5706 5698 5689 5678 5667 5657 5645 5633 5619 5605 5588 5570 5549 5532 5510 5494 5477 5465 5454 5447 5441 5435 5431 5425 5421 5418 5413 5408 5404 5408 5423 5430 5433 5437 5441 5449 5460 5470 5482 5487 5500
5741 5734 5728 5721 5713 5705 5697 5688 5677 5667 5656 5646 5633 5621 5606 5589 5570 5549 5530 5512 5492 5475 5461 5451 5445 5440 5438 5434 5428 5423 5420 5414 5409 5405 5401 5403 5415 5420 5424 5431 5437 5446 5447 5470 5480 5488 5495
5732 5726 5720 5713 5704 5695 5686 5677 5666 5656 5646 5635 5622 5607 5591 5573 5553 5532 5512 5493 5477 5463 5454 5448 5441 5438 5433 5429 5425 5421 5416 5413 5408 5406 5403 5404 5409 5415 5421 5426 5435 5436 5450 5459 5468 5482 5486
5725 5719 5712 5703 5695 5686 5676 5667 5657 5647 5636 5623 5609 5593 5576 5556 5536 5518 5498 5480 5467 5455 5447 5444 5440 5435 5431 5427 5423 5419 5415 5412 5406 5404 5402 5400 5405 5413 5418 5423 5431 5436 5442 5451 5463 5476 5477
5718 5711 5703 5695 5687 5677 5668 5658 5647 5637 5625 5612 5598 5582 5560 5540 5525 5500 5482 5466 5457 5450 5445 5442 5437 5433 5428 5424 5420 5417 5413 5409 5404 5400 5398 5397 5401 5409 5416 5420 5425 5430 5438 5445 5455 5467 5477
5710 5703 5695 5686 5677 5669 5658 5648 5637 5626 5614 5602 5587 5569 5549 5525 5508 5491 5476 5463 5450 5444 5441 5437 5433 5430 5426 5422 5417 5414 5410 5406 5401 5399 5396 5395 5399 5405 5411 5419 5421 5428 5434 5441 5452 5464 5474
5702 5695 5687 5678 5669 5659 5649 5638 5627 5615 5602 5588 5572 5556 5540 5516 5493 5474 5460 5454 5448 5443 5438 5434 5430 5427 5422 5419 5416 5408 5405 5403 5400 5397 5396 5395 5399 5405 5411 5413 5418 5426 5432 5442 5450 5460 5469
5694 5686 5678 5669 5659 5651 5639 5629 5618 5605 5591 5577 5559 5541 5519 5504 5489 5471 5456 5447 5442 5437 5435 5430 5427 5423 5418 5412 5408 5405 5402 5398 5397 5393 5393 5394 5399 5405 5411 5414 5418 5424 5434 5443 5451 5460 5469
5685 5677 5669 5660 5651 5641 5632 5619 5607 5595 5579 5562 5547 5531 5514 5494 5477 5461 5451 5447 5439 5436 5430 5428 5423 5420 5416 5410 5405 5398 5396 5394 5391 5392 5392 5393 5399 5405 5414 5417 5423 5430 5438 5444 5451 5458 5465
5676 5668 5660 5652 5643 5634 5623 5611 5598 5582 5567 5550 5530 5516 5500 5486 5471 5456 5450 5443 5437 5431 5431 5425 5420 5415 5412 5406 5400 5396 5393 5390 5389 5390 5391 5392 5398 5406 5417 5422 5426 5433 5438 5443 5449 5457 5460
5669 5661 5654 5646 5636 5626 5615 5602 5589 5573 5555 5538 5521 5504 5489 5480 5462 5450 5444 5440 5436 5431 5425 5424 5419 5415 5410 5404 5399 5395 5392 5390 5388 5389 5390 5392 5398 5407 5414 5420 5426 5432 5437 5442 5447 5452 5459
5662 5655 5647 5638 5628 5618 5607 5594 5581 5565 5548 5531 5512 5496 5480 5473 5459 5450 5441 5434 5434 5430 5425 5421 5419 5415 5411 5404 5400 5395 5393 5392 5391 5390 5390 5392 5397 5407 5415 5422 5428 5430 5436 5442 5447 5453 5459
5653 5647 5639 5630 5621 5610 5600 5587 5573 5557 5540 5524 5505 5488 5474 5463 5457 5445 5439 5435 5431 5428 5425 5422 5419 5416 5412 5407 5400 5396 5395 5395 5395 5394 5392 5394 5398 5408 5416 5421 5424 5429 5434 5439 5445 5453 5458
5646 5639 5631 5624 5613 5602 5592 5578 5564 5549 5533 5516 5500 5485 5473 5464 5456 5448 5441 5437 5433 5430 5427 5424 5421 5418 5414 5410 5405 5401 5400 5399 5398 5396 5395 5396 5400 5406 5414 5419 5424 5428 5434 5440 5447 5455 5456
5638 5632 5625 5616 5605 5594 5583 5570 5557 5541 5526 5511 5496 5481 5471 5463 5456 5450 5445 5440 5436 5432 5429 5425 5422 5420 5416 5413 5409 5405 5403 5402 5401 5400 5398 5399 5400 5406 5413 5418 5424 5429 5435 5442 5447 5450 5454
5630 5625 5617 5607 5597 5586 5575 5562 5550 5534 5520 5504 5491 5478 5468 5461 5456 5452 5448 5443 5438 5434 5429 5424 5421 5417 5415 5412 5410 5408 5405 5405 5404 5403 5402 5403 5404 5406 5412 5417 5424 5430 5435 5441 5445 5449 5453